1998-067UE (53767 NORAD) Tracking and Keplerian Element Data

This shows tracking and keplerian element data for the satellite.

Feedback or suggestion? Click here.




ElementValue
Catalog53767
Name1998-067UE
Epoch Orbit1178
Epoch Day325.11537595
Epoch Year2022
RAAN276.9716
Inclination51.6401
Eccentricity0.0005818
Argument of Perigee131.9662
Mean Anonmoly228.1826
Mean Motion15.57386643
Decay Rate0.00043873
L11 53767U 98067UE 22325.11537595 .00043873 00000+0 59067-3 0 9992
L22 53767 51.6401 276.9716 0005818 131.9662 228.1826 15.57386643 11789



Live tracking and technical data element details for 1998-067UE (NORAD 53767). 1998-067UE can be tracked NOW for your location showing map with azimuth and elevation plus other details from your city location.







IsCatalogInMostPopularTable: catalog: 53767, numindb: -1

Insert: records affected: 1


GetName: 53767 1998-067UE

Hit Count: inserted at: Thu, 08 Dec 2022 08:32:44 GMT